TimeAKST,TemperatureF,Dew PointF,Humidity,Sea Level PressureIn,VisibilityMPH,Wind Direction,Wind SpeedMPH,Gust SpeedMPH,PrecipitationIn,Events,Conditions,WindDirDegrees,DateUTC
12:53 AM,19.9,1.9,46,30.20,10.0,NNW,4.6,-,N/A,,Clear,340,2012-11-07 09:53:00
1:53 AM,19.0,1.0,46,30.21,10.0,North,6.9,-,N/A,,Clear,350,2012-11-07 10:53:00
3:53 AM,18.0,1.0,48,30.23,10.0,NNW,4.6,-,N/A,,Clear,340,2012-11-07 12:53:00
4:53 AM,15.1,-0.9,49,30.24,10.0,NNW,4.6,-,N/A,,Clear,330,2012-11-07 13:53:00
5:53 AM,15.1,-2.0,47,30.25,10.0,NNW,5.8,-,N/A,,Clear,340,2012-11-07 14:53:00
6:53 AM,14.0,-2.0,49,30.26,10.0,North,3.5,-,N/A,,Clear,350,2012-11-07 15:53:00
7:53 AM,14.0,-2.0,49,30.28,10.0,North,5.8,-,N/A,,Clear,360,2012-11-07 16:53:00
8:53 AM,16.0,-0.9,47,30.29,10.0,North,6.9,-,N/A,,Partly Cloudy,10,2012-11-07 17:53:00
9:53 AM,12.9,-2.0,51,30.30,10.0,NNW,5.8,-,N/A,,Clear,340,2012-11-07 18:53:00
10:53 AM,17.1,-2.0,43,30.32,10.0,North,5.8,-,N/A,,Clear,10,2012-11-07 19:53:00
11:53 AM,19.9,-0.9,40,30.33,10.0,North,6.9,-,N/A,,Clear,360,2012-11-07 20:53:00
12:53 PM,23.0,-0.9,35,30.32,10.0,North,3.5,-,N/A,,Clear,350,2012-11-07 21:53:00
1:53 PM,24.1,-2.0,32,30.34,10.0,Calm,Calm,-,N/A,,Clear,0,2012-11-07 22:53:00
2:53 PM,25.0,-0.9,33,30.34,10.0,Calm,Calm,-,N/A,,Clear,0,2012-11-07 23:53:00
3:53 PM,21.9,1.0,40,30.35,10.0,Calm,Calm,-,N/A,,Clear,0,2012-11-08 00:53:00
4:53 PM,15.1,1.9,56,30.35,10.0,Calm,Calm,-,N/A,,Clear,0,2012-11-08 01:53:00
5:53 PM,10.9,1.0,64,30.37,10.0,Calm,Calm,-,N/A,,Clear,0,2012-11-08 02:53:00
6:53 PM,7.0,1.0,77,30.39,10.0,Calm,Calm,-,N/A,,Clear,0,2012-11-08 03:53:00
7:53 PM,6.1,-0.9,73,30.40,10.0,NE,3.5,-,N/A,,Clear,50,2012-11-08 04:53:00
8:53 PM,3.9,-0.9,80,30.40,9.0,Calm,Calm,-,N/A,,Clear,0,2012-11-08 05:53:00
9:53 PM,1.9,-0.9,88,30.40,10.0,NE,4.6,-,N/A,,Clear,40,2012-11-08 06:53:00
10:53 PM,1.9,-2.0,83,30.40,10.0,NE,4.6,-,N/A,,Clear,50,2012-11-08 07:53:00
11:53 PM,1.9,-2.0,83,30.42,10.0,NE,3.5,-,N/A,,Clear,50,2012-11-08 08:53:00